Location: Gorrie
(43.8742°N, 81.1087°W)
Time: 09:52:49
(UTC+00:00)

SL-16 R/B - Pass Details

Date: 09 December 2025
Orbit: 841 x 844 km, 71.0° (Epoch: 21 January)

Event Time Altitude Azimuth Distance (km) Brightness Sun altitude
Exits shadow 10:20:37 22° 354° (N) 1,786 3.7 -25.5°
Maximum altitude 10:24:05 47° 59° (ENE) 1,103 3.0 -24.9°
Drops below altitude 10° 10:29:31 10° 133° (SE) 2,459 5.4 -23.9°
Sets 10:32:03 0° 139° (SE) 3,391 6.1 -23.5°
